QPF
0.00 0.00 0.00 0.00 0.00 0.01 0.01 0.01 0.01 0.01 0.01 0.01 0.01 0.01 0.01 0.01 0.01 0.02 0.01 0.01 0.01 0.01 0.01 0.01 0.01 0.01 0.02 0.04 0.04 0.04 0.05 0.05 0.05 0.05 0.05 0.05 0.06 0.09 0.10 0.10 0.14 0.15 0.16 0.16
0.00 0.01 0.01 0.00 0.01 0.01 0.01 0.01 0.01 0.01 0.01 0.01 0.01 0.01 0.01 0.01 0.01 0.01 0.01 0.01 0.00 0.00 0.00 0.00 0.00 0.00 0.01 0.03 0.04 0.03 0.04 0.06 0.06 0.04 0.04 0.04 0.05 0.07 0.11 0.11 0.12 0.16 0.17 0.18
0.00 0.01 0.01 0.01 0.01 0.01 0.01 0.01 0.01 0.00 0.00 0.00 0.00 0.01 0.01 0.01 0.00 0.00 0.01 0.00 0.00 0.00 0.00 0.00 0.00 0.00 0.01 0.02 0.04 0.04 0.03 0.05 0.08 0.05 0.06 0.05 0.06 0.07 0.10 0.14 0.14 0.14 0.15 0.18
0.00 0.00 0.00 0.00 0.00 0.00 0.01 0.01 0.00 0.00 0.00 0.00 0.00 0.00 0.00 0.00 0.00 0.00 0.00 0.01 0.01 0.00 0.00 0.00 0.00 0.00 0.01 0.02 0.04 0.05 0.05 0.05 0.07 0.08 0.07 0.07 0.06 0.07 0.08 0.10 0.17 0.18 0.14 0.14
0.00 0.00 0.00 0.00 0.00 0.00 0.00 0.00 0.00 0.00 0.00 0.00 0.00 0.01 0.00 0.00 0.00 0.00 0.00 0.01 0.01 0.01 0.01 0.00 0.00 0.00 0.01 0.03 0.05 0.06 0.08 0.08 0.10 0.12 0.08 0.08 0.06 0.07 0.10 0.10 0.14 0.22 0.20 0.15
0.01 0.00 0.00 0.00 0.00 0.00 0.01 0.00 0.00 0.00 0.01 0.01 0.00 0.00 0.00 0.00 0.00 0.00 0.00 0.00 0.01 0.01 0.02 0.01 0.00 0.00 0.01 0.02 0.03 0.04 0.06 0.10 0.12 0.15 0.15 0.10 0.07 0.06 0.09 0.12 0.12 0.16 0.20 0.19
0.01 0.01 0.00 0.01 0.01 0.01 0.01 0.01 0.02 0.02 0.01 0.00 0.00 0.00 0.00 0.00 0.00 0.00 0.00 0.00 0.00 0.01 0.02 0.02 0.01 0.01 0.01 0.01 0.02 0.02 0.04 0.07 0.10 0.14 0.17 0.15 0.11 0.09 0.09 0.10 0.12 0.12 0.15 0.17
0.01 0.01 0.00 0.00 0.01 0.02 0.01 0.01 0.01 0.01 0.01 0.00 0.00 0.01 0.01 0.00 0.00 0.00 0.00 0.00 0.00 0.00 0.01 0.01 0.01 0.01 0.02 0.01 0.01 0.02 0.03 0.05 0.06 0.08 0.13 0.16 0.16 0.16 0.15 0.13 0.12 0.11 0.12 0.13
0.00 0.00 0.00 0.00 0.00 0.01 0.01 0.01 0.01 0.01 0.01 0.01 0.01 0.01 0.01 0.00 0.00 0.00 0.00 0.00 0.00 0.00 0.00 0.01 0.01 0.01 0.01 0.01 0.01 0.02 0.02 0.04 0.05 0.05 0.07 0.11 0.14 0.15 0.17 0.20 0.18 0.14 0.13 0.13
0.00 0.01 0.00 0.00 0.01 0.01 0.01 0.01 0.01 0.02 0.02 0.01 0.01 0.01 0.01 0.01 0.00 0.00 0.00 0.00 0.00 0.00 0.00 0.01 0.01 0.01 0.01 0.01 0.02 0.02 0.03 0.02 0.04 0.05 0.05 0.06 0.09 0.11 0.11 0.15 0.21 0.21 0.18 0.15
0.02 0.01 0.01 0.01 0.01 0.01 0.01 0.01 0.02 0.02 0.02 0.02 0.02 0.02 0.02 0.01 0.00 0.00 0.00 0.00 0.00 0.00 0.00 0.00 0.01 0.01 0.02 0.03 0.03 0.03 0.03 0.03 0.04 0.05 0.05 0.04 0.05 0.06 0.08 0.08 0.12 0.16 0.20 0.18
0.02 0.03 0.02 0.01 0.01 0.01 0.01 0.01 0.01 0.02 0.01 0.01 0.02 0.01 0.01 0.00 0.00 0.00 0.00 0.00 0.00 0.00 0.00 0.00 0.00 0.01 0.02 0.02 0.03 0.03 0.03 0.02 0.03 0.05 0.05 0.05 0.04 0.04 0.06 0.07 0.08 0.10 0.14 0.18
0.03 0.06 0.04 0.03 0.02 0.02 0.01 0.01 0.01 0.01 0.01 0.01 0.01 0.01 0.01 0.00 0.00 0.00 0.00 0.00 0.00 0.00 0.00 0.00 0.00 0.01 0.01 0.02 0.02 0.02 0.02 0.02 0.02 0.03 0.04 0.04 0.04 0.03 0.04 0.05 0.06 0.07 0.09 0.13
0.04 0.06 0.03 0.01 0.01 0.01 0.01 0.01 0.01 0.01 0.02 0.01 0.01 0.01 0.00 0.00 0.00 0.00 0.00 0.00 0.00 0.00 0.00 0.00 0.00 0.01 0.01 0.02 0.03 0.03 0.03 0.02 0.02 0.02 0.03 0.03 0.03 0.03 0.03 0.04 0.05 0.05 0.07 0.08
0.03 0.04 0.02 0.00 0.00 0.00 0.01 0.00 0.01 0.02 0.01 0.01 0.01 0.00 0.00 0.00 0.00 0.00 0.00 0.00 0.00 0.00 0.00 0.01 0.01 0.01 0.01 0.02 0.03 0.04 0.04 0.03 0.03 0.02 0.03 0.03 0.03 0.03 0.03 0.03 0.05 0.05 0.05 0.06
0.03 0.03 0.02 0.01 0.01 0.01 0.01 0.00 0.00 0.01 0.01 0.01 0.00 0.00 0.00 0.00 0.00 0.00 0.00 0.00 0.00 0.00 0.00 0.01 0.01 0.01 0.01 0.02 0.03 0.04 0.04 0.04 0.03 0.03 0.02 0.03 0.03 0.03 0.03 0.03 0.04 0.05 0.06 0.05
0.04 0.04 0.03 0.02 0.01 0.02 0.02 0.01 0.00 0.00 0.00 0.01 0.01 0.01 0.00 0.00 0.00 0.00 0.00 0.00 0.00 0.00 0.00 0.01 0.01 0.02 0.02 0.02 0.02 0.03 0.04 0.04 0.04 0.03 0.03 0.02 0.02 0.04 0.04 0.03 0.04 0.05 0.06 0.06
0.04 0.04 0.05 0.04 0.02 0.03 0.01 0.00 0.00 0.00 0.00 0.01 0.01 0.01 0.00 0.00 0.00 0.00 0.00 0.01 0.00 0.00 0.00 0.01 0.01 0.02 0.02 0.02 0.02 0.02 0.03 0.03 0.03 0.03 0.02 0.03 0.02 0.03 0.05 0.04 0.04 0.05 0.06 0.05
0.03 0.03 0.05 0.04 0.03 0.01 0.00 0.00 0.00 0.01 0.01 0.01 0.01 0.00 0.00 0.00 0.00 0.00 0.00 0.01 0.01 0.01 0.01 0.01 0.01 0.02 0.02 0.02 0.02 0.02 0.02 0.03 0.03 0.03 0.03 0.03 0.03 0.03 0.03 0.04 0.04 0.05 0.05 0.06
0.03 0.02 0.04 0.04 0.02 0.01 0.00 0.00 0.00 0.00 0.01 0.00 0.00 0.00 0.00 0.00 0.00 0.00 0.00 0.00 0.00 0.01 0.01 0.01 0.01 0.02 0.02 0.02 0.02 0.02 0.02 0.02 0.03 0.04 0.04 0.04 0.04 0.03 0.03 0.04 0.04 0.05 0.05 0.06
0.03 0.04 0.04 0.03 0.02 0.00 0.00 0.00 0.00 0.01 0.00 0.00 0.00 0.00 0.00 0.01 0.01 0.00 0.00 0.00 0.00 0.01 0.01 0.01 0.01 0.01 0.01 0.01 0.01 0.01 0.02 0.02 0.03 0.03 0.03 0.03 0.03 0.03 0.03 0.04 0.04 0.04 0.04 0.04
0.01 0.02 0.02 0.02 0.02 0.01 0.00 0.00 0.00 0.00 0.00 0.00 0.00 0.00 0.00 0.00 0.00 0.00 0.00 0.00 0.01 0.01 0.01 0.01 0.01 0.01 0.01 0.01 0.01 0.02 0.02 0.03 0.02 0.03 0.03 0.03 0.03 0.03 0.03 0.03 0.04 0.04 0.04 0.04
0.01 0.01 0.01 0.01 0.01 0.01 0.00 0.00 0.00 0.00 0.00 0.00 0.00 0.00 0.00 0.00 0.01 0.01 0.01 0.01 0.01 0.01 0.01 0.01 0.01 0.01 0.01 0.01 0.02 0.02 0.02 0.02 0.02 0.02 0.03 0.03 0.03 0.03 0.02 0.02 0.03 0.04 0.04 0.05
0.00 0.01 0.01 0.01 0.01 0.01 0.01 0.01 0.00 0.00 0.00 0.00 0.00 0.00 0.00 0.00 0.00 0.00 0.01 0.01 0.01 0.01 0.01 0.01 0.01 0.01 0.01 0.01 0.01 0.02 0.02 0.02 0.01 0.02 0.02 0.02 0.02 0.03 0.03 0.02 0.02 0.03 0.04 0.04
0.01 0.00 0.01 0.01 0.00 0.00 0.00 0.00 0.01 0.00 0.00 0.00 0.00 0.00 0.00 0.00 0.00 0.01 0.01 0.01 0.01 0.01 0.01 0.01 0.01 0.01 0.01 0.01 0.01 0.01 0.02 0.01 0.01 0.02 0.02 0.02 0.02 0.02 0.02 0.03 0.03 0.03 0.04 0.04
0.00 0.00 0.00 0.01 0.00 0.00 0.00 0.00 0.00 0.00 0.00 0.00 0.00 0.00 0.00 0.00 0.00 0.00 0.00 0.00 0.00 0.01 0.01 0.01 0.01 0.01 0.01 0.01 0.01 0.01 0.01 0.01 0.01 0.02 0.02 0.02 0.02 0.02 0.02 0.02 0.03 0.03 0.04 0.04
MSLP
1025.78 1026.25 1026.89 1027.64 1028.42 1029.13 1029.67 1029.98 1030.00 1029.77 1029.33 1028.79 1028.26 1027.81 1027.52 1027.40 1027.41 1027.47 1027.49 1027.38 1027.07 1026.54 1025.80 1024.89 1023.87 1022.82 1021.76 1020.73 1019.69 1018.63 1017.50 1016.28 1014.97 1013.60 1012.24 1010.97 1009.88 1009.05 1008.53 1008.30 1008.36 1008.62 1009.03 1009.53
1026.45 1026.82 1027.33 1027.95 1028.62 1029.27 1029.80 1030.13 1030.21 1030.04 1029.67 1029.18 1028.65 1028.18 1027.82 1027.61 1027.51 1027.48 1027.43 1027.28 1026.97 1026.45 1025.72 1024.82 1023.79 1022.70 1021.58 1020.47 1019.37 1018.25 1017.09 1015.88 1014.62 1013.33 1012.06 1010.89 1009.87 1009.08 1008.55 1008.29 1008.27 1008.45 1008.77 1009.19
1027.02 1027.27 1027.66 1028.16 1028.76 1029.37 1029.91 1030.30 1030.48 1030.42 1030.15 1029.72 1029.22 1028.71 1028.28 1027.96 1027.74 1027.59 1027.45 1027.23 1026.89 1026.36 1025.64 1024.75 1023.71 1022.60 1021.43 1020.26 1019.10 1017.93 1016.75 1015.56 1014.34 1013.13 1011.94 1010.85 1009.90 1009.14 1008.61 1008.30 1008.22 1008.31 1008.55 1008.88
1027.51 1027.65 1027.93 1028.35 1028.90 1029.51 1030.11 1030.59 1030.90 1030.98 1030.82 1030.48 1029.99 1029.46 1028.93 1028.48 1028.12 1027.82 1027.55 1027.25 1026.84 1026.30 1025.58 1024.69 1023.66 1022.52 1021.33 1020.11 1018.90 1017.69 1016.49 1015.30 1014.12 1012.96 1011.84 1010.81 1009.91 1009.18 1008.64 1008.31 1008.16 1008.19 1008.35 1008.62
1027.93 1027.99 1028.19 1028.57 1029.11 1029.77 1030.45 1031.07 1031.52 1031.75 1031.72 1031.45 1030.98 1030.39 1029.77 1029.16 1028.63 1028.16 1027.74 1027.32 1026.84 1026.25 1025.53 1024.64 1023.62 1022.49 1021.27 1020.03 1018.77 1017.52 1016.29 1015.09 1013.92 1012.79 1011.72 1010.74 1009.87 1009.16 1008.63 1008.28 1008.10 1008.08 1008.20 1008.43
1028.30 1028.32 1028.49 1028.86 1029.44 1030.18 1030.99 1031.75 1032.36 1032.73 1032.81 1032.60 1032.13 1031.48 1030.72 1029.95 1029.23 1028.57 1027.98 1027.42 1026.86 1026.22 1025.48 1024.61 1023.60 1022.47 1021.26 1019.98 1018.69 1017.40 1016.13 1014.90 1013.72 1012.59 1011.54 1010.59 1009.76 1009.08 1008.56 1008.21 1008.03 1008.01 1008.11 1008.32
1028.65 1028.65 1028.84 1029.26 1029.92 1030.76 1031.70 1032.61 1033.37 1033.86 1034.03 1033.85 1033.35 1032.61 1031.72 1030.77 1029.84 1028.98 1028.22 1027.52 1026.86 1026.18 1025.42 1024.56 1023.57 1022.46 1021.25 1019.97 1018.64 1017.31 1015.99 1014.71 1013.50 1012.35 1011.30 1010.37 1009.56 1008.92 1008.43 1008.12 1007.97 1007.96 1008.08 1008.31
1028.97 1029.01 1029.26 1029.76 1030.52 1031.48 1032.55 1033.59 1034.46 1035.04 1035.25 1035.07 1034.52 1033.67 1032.63 1031.49 1030.37 1029.33 1028.40 1027.57 1026.82 1026.09 1025.32 1024.48 1023.52 1022.44 1021.25 1019.96 1018.61 1017.23 1015.86 1014.53 1013.26 1012.08 1011.01 1010.08 1009.30 1008.68 1008.25 1007.99 1007.89 1007.94 1008.11 1008.37
1029.27 1029.39 1029.73 1030.34 1031.22 1032.29 1033.47 1034.59 1035.52 1036.13 1036.34 1036.12 1035.49 1034.52 1033.33 1032.04 1030.74 1029.54 1028.46 1027.53 1026.70 1025.94 1025.17 1024.35 1023.44 1022.39 1021.23 1019.95 1018.58 1017.17 1015.74 1014.34 1013.01 1011.78 1010.68 1009.74 1008.97 1008.39 1008.01 1007.82 1007.79 1007.91 1008.14 1008.46
1029.55 1029.79 1030.26 1030.98 1031.96 1033.12 1034.35 1035.50 1036.43 1037.01 1037.16 1036.86 1036.13 1035.05 1033.74 1032.31 1030.89 1029.56 1028.38 1027.37 1026.50 1025.72 1024.97 1024.19 1023.32 1022.33 1021.19 1019.93 1018.56 1017.12 1015.64 1014.18 1012.79 1011.50 1010.35 1009.38 1008.61 1008.06 1007.73 1007.60 1007.65 1007.84 1008.15 1008.54
1029.84 1030.22 1030.81 1031.64 1032.69 1033.88 1035.10 1036.21 1037.06 1037.54 1037.59 1037.18 1036.35 1035.18 1033.77 1032.26 1030.77 1029.39 1028.16 1027.12 1026.24 1025.47 1024.75 1024.01 1023.19 1022.25 1021.16 1019.93 1018.57 1017.10 1015.59 1014.07 1012.61 1011.25 1010.05 1009.04 1008.25 1007.71 1007.41 1007.32 1007.44 1007.70 1008.09 1008.54
1030.16 1030.68 1031.38 1032.29 1033.36 1034.51 1035.64 1036.62 1037.32 1037.66 1037.56 1037.04 1036.12 1034.88 1033.45 1031.93 1030.43 1029.06 1027.85 1026.82 1025.96 1025.22 1024.53 1023.84 1023.07 1022.18 1021.14 1019.95 1018.60 1017.14 1015.60 1014.04 1012.52 1011.09 1009.82 1008.76 1007.93 1007.37 1007.07 1007.02 1007.17 1007.50 1007.94 1008.45
1030.52 1031.17 1031.96 1032.89 1033.91 1034.96 1035.93 1036.71 1037.20 1037.34 1037.08 1036.44 1035.46 1034.22 1032.82 1031.35 1029.94 1028.64 1027.50 1026.53 1025.72 1025.01 1024.37 1023.71 1022.99 1022.14 1021.15 1020.00 1018.68 1017.24 1015.69 1014.10 1012.54 1011.05 1009.72 1008.59 1007.71 1007.10 1006.78 1006.72 1006.89 1007.25 1007.73 1008.30
1030.94 1031.69 1032.52 1033.42 1034.33 1035.19 1035.92 1036.45 1036.69 1036.61 1036.19 1035.46 1034.46 1033.27 1031.96 1030.63 1029.36 1028.20 1027.18 1026.30 1025.56 1024.90 1024.29 1023.66 1022.96 1022.15 1021.20 1020.08 1018.81 1017.39 1015.86 1014.27 1012.68 1011.16 1009.77 1008.58 1007.63 1006.97 1006.60 1006.51 1006.68 1007.04 1007.55 1008.14
1031.42 1032.23 1033.04 1033.84 1034.57 1035.19 1035.64 1035.86 1035.84 1035.54 1034.98 1034.19 1033.22 1032.14 1030.99 1029.86 1028.78 1027.81 1026.94 1026.18 1025.50 1024.89 1024.29 1023.67 1022.98 1022.19 1021.26 1020.19 1018.97 1017.60 1016.12 1014.55 1012.97 1011.44 1010.01 1008.77 1007.77 1007.04 1006.61 1006.48 1006.61 1006.95 1007.46 1008.08
1031.93 1032.74 1033.48 1034.12 1034.62 1034.95 1035.09 1035.02 1034.72 1034.23 1033.56 1032.76 1031.86 1030.93 1029.99 1029.10 1028.26 1027.49 1026.79 1026.15 1025.54 1024.96 1024.36 1023.72 1023.02 1022.24 1021.34 1020.31 1019.15 1017.86 1016.44 1014.94 1013.41 1011.90 1010.47 1009.21 1008.16 1007.38 1006.89 1006.70 1006.78 1007.08 1007.57 1008.18
1032.40 1033.16 1033.78 1034.22 1034.46 1034.50 1034.32 1033.96 1033.42 1032.77 1032.03 1031.25 1030.48 1029.73 1029.03 1028.39 1027.80 1027.24 1026.70 1026.17 1025.63 1025.06 1024.44 1023.78 1023.06 1022.27 1021.40 1020.42 1019.34 1018.14 1016.83 1015.43 1013.98 1012.53 1011.15 1009.90 1008.83 1008.02 1007.48 1007.22 1007.24 1007.50 1007.95 1008.53
1032.74 1033.40 1033.86 1034.08 1034.06 1033.81 1033.36 1032.74 1032.02 1031.25 1030.49 1029.77 1029.14 1028.59 1028.13 1027.74 1027.37 1027.01 1026.62 1026.19 1025.68 1025.12 1024.48 1023.79 1023.06 1022.26 1021.42 1020.51 1019.52 1018.43 1017.26 1015.99 1014.67 1013.33 1012.02 1010.82 1009.77 1008.95 1008.38 1008.07 1008.03 1008.23 1008.61 1009.14
1032.82 1033.36 1033.65 1033.66 1033.41 1032.92 1032.24 1031.43 1030.58 1029.74 1028.99 1028.37 1027.88 1027.53 1027.28 1027.10 1026.94 1026.74 1026.47 1026.11 1025.64 1025.08 1024.43 1023.72 1022.98 1022.20 1021.40 1020.57 1019.69 1018.74 1017.72 1016.61 1015.44 1014.23 1013.04 1011.92 1010.93 1010.12 1009.54 1009.20 1009.10 1009.23 1009.54 1009.99
1032.57 1032.98 1033.10 1032.94 1032.50 1031.82 1030.99 1030.06 1029.14 1028.29 1027.59 1027.06 1026.71 1026.52 1026.46 1026.45 1026.44 1026.37 1026.19 1025.89 1025.46 1024.90 1024.26 1023.55 1022.83 1022.09 1021.36 1020.62 1019.86 1019.06 1018.19 1017.25 1016.25 1015.20 1014.14 1013.12 1012.20 1011.44 1010.86 1010.50 1010.36 1010.42 1010.65 1011.01
1031.91 1032.20 1032.20 1031.90 1031.33 1030.56 1029.64 1028.67 1027.74 1026.93 1026.29 1025.86 1025.63 1025.57 1025.63 1025.75 1025.85 1025.86 1025.76 1025.51 1025.11 1024.59 1023.98 1023.31 1022.63 1021.96 1021.32 1020.68 1020.05 1019.38 1018.67 1017.89 1017.04 1016.14 1015.22 1014.32 1013.49 1012.78 1012.23 1011.87 1011.70 1011.70 1011.85 1012.12
1030.85 1031.04 1030.94 1030.57 1029.96 1029.15 1028.23 1027.29 1026.41 1025.67 1025.12 1024.78 1024.64 1024.67 1024.82 1025.01 1025.17 1025.24 1025.19 1024.99 1024.65 1024.18 1023.63 1023.04 1022.44 1021.86 1021.30 1020.78 1020.25 1019.71 1019.13 1018.49 1017.77 1017.01 1016.21 1015.42 1014.68 1014.04 1013.54 1013.18 1012.99 1012.95 1013.04 1013.23
1029.43 1029.55 1029.42 1029.03 1028.43 1027.67 1026.82 1025.96 1025.18 1024.54 1024.08 1023.83 1023.76 1023.85 1024.04 1024.26 1024.45 1024.56 1024.55 1024.41 1024.13 1023.74 1023.28 1022.78 1022.28 1021.80 1021.35 1020.92 1020.49 1020.04 1019.55 1019.01 1018.40 1017.73 1017.04 1016.35 1015.70 1015.13 1014.67 1014.34 1014.15 1014.08 1014.12 1014.24
1027.78 1027.86 1027.72 1027.37 1026.84 1026.19 1025.46 1024.74 1024.10 1023.58 1023.23 1023.05 1023.03 1023.15 1023.35 1023.58 1023.78 1023.91 1023.94 1023.85 1023.65 1023.35 1023.00 1022.61 1022.21 1021.82 1021.46 1021.10 1020.73 1020.34 1019.91 1019.42 1018.88 1018.29 1017.67 1017.06 1016.49 1015.99 1015.58 1015.29 1015.11 1015.03 1015.04 1015.12
1026.05 1026.11 1026.00 1025.72 1025.31 1024.80 1024.24 1023.70 1023.21 1022.83 1022.58 1022.48 1022.50 1022.63 1022.83 1023.05 1023.24 1023.38 1023.43 1023.39 1023.27 1023.06 1022.81 1022.52 1022.22 1021.91 1021.61 1021.29 1020.95 1020.58 1020.17 1019.70 1019.19 1018.65 1018.09 1017.54 1017.04 1016.61 1016.27 1016.02 1015.86 1015.79 1015.78 1015.83
1024.40 1024.46 1024.39 1024.22 1023.94 1023.60 1023.23 1022.87 1022.56 1022.32 1022.19 1022.15 1022.21 1022.34 1022.52 1022.72 1022.89 1023.02 1023.09 1023.09 1023.03 1022.90 1022.72 1022.51 1022.28 1022.02 1021.75 1021.44 1021.11 1020.73 1020.30 1019.84 1019.34 1018.82 1018.30 1017.82 1017.38 1017.02 1016.73 1016.53 1016.41 1016.35 1016.34 1016.37
Thickness
5539 5532 5528 5530 5530 5531 5527 5523 5521 5524 5529 5526 5524 5528 5537 5539 5537 5536 5536 5539 5541 5545 5549 5552 5555 5556 5558 5562 5565 5567 5569 5571 5573 5576 5578 5581 5583 5586 5587 5589 5590 5590 5590 5590
5524 5522 5526 5525 5524 5522 5519 5515 5514 5517 5520 5519 5516 5522 5530 5532 5531 5531 5531 5532 5533 5537 5540 5542 5544 5546 5549 5552 5554 5557 5560 5562 5565 5567 5570 5572 5574 5576 5578 5579 5580 5581 5581 5581
5518 5519 5521 5518 5514 5513 5510 5506 5506 5507 5507 5507 5508 5518 5525 5527 5525 5526 5525 5525 5526 5528 5530 5534 5535 5537 5539 5542 5544 5548 5550 5553 5556 5558 5560 5562 5563 5566 5567 5569 5570 5572 5573 5573
5505 5510 5512 5510 5507 5507 5504 5505 5502 5499 5493 5489 5495 5495 5516 5515 5513 5516 5516 5515 5516 5518 5520 5523 5526 5527 5529 5532 5534 5537 5540 5543 5546 5549 5551 5553 5555 5557 5559 5561 5562 5564 5565 5566
5498 5501 5502 5501 5502 5500 5495 5496 5491 5487 5480 5474 5477 5478 5502 5502 5505 5509 5508 5506 5507 5508 5510 5513 5515 5517 5519 5521 5523 5526 5529 5533 5536 5539 5542 5545 5546 5548 5550 5551 5553 5555 5556 5557
5491 5493 5494 5494 5494 5492 5486 5482 5475 5464 5462 5463 5469 5468 5486 5489 5497 5502 5502 5499 5498 5499 5500 5503 5505 5507 5509 5511 5514 5517 5520 5523 5526 5528 5532 5536 5538 5539 5540 5542 5544 5546 5547 5548
5479 5484 5485 5486 5482 5480 5477 5469 5458 5456 5447 5457 5463 5464 5478 5492 5491 5491 5492 5490 5488 5489 5490 5492 5495 5498 5499 5502 5505 5508 5511 5515 5517 5520 5522 5526 5529 5532 5533 5535 5536 5537 5538 5540
5467 5468 5475 5476 5475 5469 5467 5466 5456 5454 5447 5451 5452 5453 5477 5486 5483 5482 5482 5480 5479 5480 5481 5483 5485 5488 5490 5493 5496 5499 5503 5506 5509 5512 5515 5518 5521 5523 5525 5527 5528 5530 5531 5532
5456 5459 5466 5468 5468 5466 5457 5451 5449 5434 5423 5426 5441 5446 5466 5477 5476 5475 5473 5471 5470 5470 5471 5473 5475 5479 5481 5484 5487 5490 5493 5497 5501 5504 5506 5509 5512 5515 5517 5518 5519 5521 5522 5523
5450 5444 5452 5454 5457 5454 5452 5442 5431 5428 5430 5434 5441 5442 5457 5466 5466 5466 5463 5461 5460 5461 5462 5464 5466 5469 5472 5474 5477 5479 5483 5488 5492 5494 5497 5501 5504 5506 5509 5509 5510 5511 5513 5514
5442 5434 5436 5440 5442 5440 5436 5432 5427 5417 5420 5424 5426 5449 5457 5457 5457 5455 5453 5453 5451 5452 5453 5454 5457 5459 5462 5464 5467 5470 5474 5478 5481 5485 5488 5491 5494 5496 5499 5500 5501 5502 5503 5504
5432 5422 5419 5427 5430 5434 5433 5428 5420 5422 5413 5405 5411 5440 5457 5450 5447 5446 5444 5445 5445 5445 5445 5445 5447 5449 5452 5454 5457 5461 5464 5468 5471 5475 5478 5481 5484 5487 5489 5490 5491 5492 5493 5493
5426 5418 5417 5424 5421 5418 5419 5418 5414 5409 5400 5391 5402 5436 5447 5441 5439 5438 5437 5437 5437 5437 5437 5438 5438 5440 5442 5444 5448 5451 5455 5458 5462 5464 5468 5471 5474 5476 5478 5479 5481 5482 5483 5483
5425 5411 5417 5426 5427 5413 5408 5409 5406 5402 5398 5393 5404 5425 5437 5436 5433 5433 5430 5429 5428 5428 5429 5430 5430 5431 5433 5436 5438 5442 5445 5449 5452 5455 5458 5461 5464 5466 5468 5469 5471 5472 5473 5473
5414 5403 5398 5404 5410 5406 5406 5408 5403 5400 5403 5404 5414 5413 5428 5428 5426 5425 5424 5423 5423 5422 5423 5423 5424 5424 5426 5428 5431 5433 5436 5440 5444 5447 5450 5453 5455 5456 5458 5459 5460 5461 5462 5463
5400 5394 5392 5394 5401 5398 5400 5406 5404 5402 5401 5400 5404 5412 5421 5419 5416 5416 5416 5416 5417 5417 5418 5418 5418 5418 5419 5420 5422 5425 5427 5430 5434 5437 5440 5443 5445 5446 5447 5449 5450 5451 5452 5452
5386 5384 5384 5386 5384 5391 5397 5406 5404 5400 5399 5400 5404 5416 5414 5411 5413 5412 5412 5411 5411 5411 5412 5412 5412 5412 5412 5413 5415 5416 5419 5422 5425 5428 5430 5432 5434 5436 5437 5438 5439 5440 5441 5441
5380 5375 5369 5370 5374 5384 5414 5409 5406 5402 5401 5398 5402 5405 5405 5406 5406 5405 5404 5403 5404 5405 5405 5405 5405 5405 5405 5406 5407 5409 5411 5413 5415 5417 5420 5422 5424 5425 5426 5427 5428 5429 5430 5430
5376 5371 5360 5359 5362 5377 5400 5401 5396 5394 5398 5399 5397 5399 5398 5397 5395 5398 5401 5399 5398 5398 5398 5398 5398 5399 5398 5399 5400 5401 5402 5403 5405 5407 5409 5412 5413 5414 5415 5416 5417 5418 5419 5419
5363 5361 5355 5350 5358 5372 5402 5397 5391 5392 5394 5401 5395 5393 5390 5387 5386 5395 5397 5393 5391 5390 5390 5390 5391 5391 5391 5391 5391 5392 5393 5394 5396 5398 5400 5402 5403 5405 5405 5406 5406 5407 5408 5408
5351 5346 5345 5344 5348 5366 5386 5384 5384 5383 5394 5396 5389 5388 5383 5381 5384 5387 5385 5383 5382 5382 5382 5382 5383 5383 5383 5383 5382 5383 5384 5385 5387 5389 5390 5391 5393 5394 5395 5396 5397 5397 5397 5398
5347 5341 5337 5336 5342 5367 5378 5373 5376 5384 5387 5385 5382 5381 5378 5377 5377 5376 5375 5374 5373 5373 5373 5374 5374 5374 5374 5374 5374 5374 5375 5377 5378 5379 5380 5381 5383 5384 5386 5386 5386 5387 5387 5387
5344 5352 5349 5353 5369 5374 5369 5372 5376 5375 5375 5375 5373 5373 5371 5369 5368 5368 5367 5366 5365 5365 5365 5365 5365 5365 5366 5366 5366 5366 5368 5368 5369 5369 5370 5371 5373 5374 5376 5376 5377 5377 5377 5377
5339 5342 5341 5342 5357 5361 5362 5363 5365 5365 5365 5366 5365 5364 5362 5361 5360 5359 5358 5357 5356 5356 5356 5356 5356 5356 5357 5357 5357 5357 5358 5359 5360 5360 5361 5362 5364 5365 5366 5367 5368 5368 5368 5368
5343 5333 5333 5337 5349 5352 5358 5358 5359 5359 5357 5357 5357 5356 5355 5353 5352 5351 5350 5349 5348 5348 5347 5346 5346 5347 5347 5348 5348 5349 5349 5349 5350 5351 5352 5353 5355 5356 5357 5357 5358 5359 5359 5359
5335 5334 5337 5350 5353 5349 5356 5358 5354 5351 5351 5351 5349 5349 5348 5346 5345 5344 5342 5341 5339 5338 5338 5337 5337 5337 5338 5338 5339 5339 5340 5341 5341 5343 5344 5344 5345 5346 5347 5348 5349 5351 5351 5353